Погода в Кеми

Финляндия     65°44′53″N   24°34′39″E
темп.,
°C
ветер,
м/с
пор.,
м/с
влажн.,
%
обл.,
%
осадки,
мм/ч
давл.,
гПа
погр.,
м
13 июня, вс
вс1300:00+9ююз4599100 3.5 997148
03:00+10зсз3598100 3.6 998123
06:00+10зсз3693100 0.0 999141
09:00+11з3484100 0.0 1000225
12:00+11юз4477100 0.0 1001315
15:00+12юз69631 0.0 1002424
18:00+14зюз68545 0.0 1003845
21:00+13з59604 0.0 1004331
14 июня, пн
пн1400:00+10з567579 0.0 100565
03:00+9зсз4776100 0.0 1007118
06:00+9з5869100 0.0 1008278
09:00+10юз686879 0.0 1008509
12:00+10ююз6973100 0.0 1009477
15:00+10ююз81284100 0.0 1008395
18:00+9ю6887100 0.0 1006241
21:00+10юв51086100 0.0 1003316
15 июня, вт
вт1500:00+10вюв71296100 3.2 998277
03:00+11ююв122196100 13.3 991766
06:00+11ююв111794100 3.0 989565
09:00+9ююз4796100 3.8 987384
12:00+9з121788100 0.8 9921076
15:00+11зюз698188 1.1 997644
18:00+10ю118985 2.6 99966
21:00+11вюв11876 3.9 100016
16 июня, ср
ср1600:00+9з22915 0.6 100322
03:00+8с33915 1.1 100663
06:00+8ссз348873 0.0 1009139
09:00+10сз127986 0.0 1011212
12:00+10зюз56709 0.1 1012668
15:00+11юз9106030 0.1 1014634
18:00+11юз812665 0.0 1015472
21:00+10юз611809 0.0 1015234
17 июня, чт
чт1700:00+9ююз4889100 0.0 1016139
03:00+9юз4988100 0.0 1016143
06:00+10ююз61086100 0.0 1016240
09:00+9ююв5887100 0.2 1016210
12:00+11ююв69746 0.1 1015324
15:00+12ююз4981100 0.1 1015293
18:00+11ююз4685100 0.0 1014212
21:00+10ю458970 0.0 1014131